Location: North Fort Myers
(26.6673°N, 81.8801°W)
Time: 14:34:20
(UTC+00:00)

Envisat - Pass Details

Date: 17 August 2022
Orbit: 764 x 765 km, 98.2° (Epoch: 26 September)

Event Time Altitude Azimuth Distance (km) Brightness Sun altitude
Rises 09:57:11 0° 7° (N) 3,229 6.7 -14.2°
Reaches altitude 10° 09:59:31 10° 5° (N) 2,301 5.8 -13.7°
Maximum altitude 10:04:31 65° 284° (WNW) 837 3.0 -12.6°
Drops below altitude 10° 10:09:31 10° 203° (SSW) 2,289 5.1 -11.6°
Enters shadow 10:11:10 - 201° (SSW) 2,949 5.6 -11.3°
